Flag for U.S.A. Weather past 2 weeks in El Monte, California, U.S.A.

Now
72 °F

Sunny.


Feels Like: 76 °F
Forecast: 61 / 77 °F
Wind: 7 mph from Southwest

Location: Fullerton Municipal Airport

Current Time: Jun 2, 2015 at 7:03:38 PM

Latest Report: Jun 2, 2015 at 5:53 PM


Visibility: 10 mi

Pressure: 29.90 "Hg

Humidity: 61%

Dew point: 58 °F

Location of El MonteLocation

Historic Weather in El Monte — Graph

°F

El Monte temperature yesterday

Maximum temperature yesterday: 78 °F (at 1:53 PM)
Minimum temperature yesterday: 63 °F (at 12:53 AM)
Average temperature yesterday: 69 °F

Past Weeks' High & Low Weather Summary

 TemperatureHumidityPressure
High78 °F (May 29, 1:53 PM)87% (Jun 2, 4:53 AM)30.08 "Hg (Jun 2, 4:53 AM)
Low55 °F (May 19, 4:53 AM)39% (May 21, 1:53 PM)29.85 "Hg (May 30, 5:53 PM)
Average66 °F64%29.96 "Hg
* Reported May 18 5:53 PM — Jun 2 5:53 PM, El Monte, Weather by CustomWeather, © 2015

Note: Actual official high and low records may vary slightly from our data, if they occured in-between our weather recording intervals... More about our weather records

Advertising

El Monte weather history for previous 24 hours

 ConditionsComfort  
Time TempWeatherWind HumidityBarometerVisibility
5:53 PM
Tue, Jun 2
72 °FSunny.7 mph61%29.90 "Hg10 mi
4:53 PM74 °FSunny.8 mph53%29.91 "Hg10 mi
3:53 PM75 °FSunny.7 mph52%29.92 "Hg10 mi
2:53 PM75 °FSunny.8 mph54%29.94 "Hg10 mi
1:53 PM75 °FSunny.10 mph54%29.95 "Hg10 mi
12:53 PM77 °FSunny.10 mph50%29.95 "Hg10 mi
11:53 AM75 °FSunny.6 mph52%29.96 "Hg10 mi
10:53 AM73 °FSunny.5 mph57%29.97 "Hg10 mi
9:53 AM69 °FPassing clouds.5 mph63%29.98 "Hg10 mi
9:01 AM66 °FOvercast.5 mph70%29.99 "Hg10 mi
7:53 AM64 °FOvercast.3 mph78%29.98 "Hg10 mi
7:03 AM63 °FOvercast.No wind84%29.99 "Hg10 mi
6:53 AM63 °FLow clouds.No wind81%29.98 "Hg10 mi
5:53 AM60 °FClear.No wind80%29.98 "Hg10 mi
4:53 AM59 °FClear.No wind87%29.97 "Hg10 mi
3:53 AM61 °FClear.No wind81%29.97 "Hg10 mi
2:53 AM62 °FClear.No wind78%29.97 "Hg10 mi
1:53 AM63 °FClear.No wind75%29.98 "Hg10 mi
12:53 AM63 °FClear.No wind75%29.98 "Hg10 mi
11:53 PM
Mon, Jun 1
64 °FClear.No wind73%29.99 "Hg10 mi
10:53 PM64 °FClear.3 mph73%29.99 "Hg10 mi
9:53 PM65 °FClear.3 mph68%29.99 "Hg10 mi
8:53 PM67 °FSunny.3 mph63%29.97 "Hg10 mi
7:53 PM70 °FSunny.3 mph57%29.96 "Hg10 mi
Weather by CustomWeather, © 2015

See weather overviewHow to use our weather pages